Time,TemperatureF,DewpointF,PressureIn,WindDirection,WindDirectionDegrees,WindSpeedMPH,WindSpeedGustMPH,Humidity,HourlyPrecipIn,Conditions,Clouds,dailyrainin,SolarRadiationWatts/m^2,SoftwareType,DateUTC
2013-02-12 00:04:00,41.4,33.4,30.23,SE,132,0.0,0.0,73,0.00,,,0.00,0,WeatherTracker,2013-02-12 08:04:00,
2013-02-12 00:09:00,41.3,33.3,30.23,SE,132,0.0,0.0,73,0.00,,,0.00,0,WeatherTracker,2013-02-12 08:09:00,
2013-02-12 00:14:00,41.3,33.6,30.24,SE,132,0.0,0.0,74,0.00,,,0.00,0,WeatherTracker,2013-02-12 08:14:00,
2013-02-12 00:19:00,41.4,33.7,30.24,SE,132,0.0,0.0,74,0.00,,,0.00,0,WeatherTracker,2013-02-12 08:19:00,
2013-02-12 00:24:00,41.6,34.3,30.24,SE,132,0.0,0.0,75,0.00,,,0.00,0,WeatherTracker,2013-02-12 08:24:00,
2013-02-12 00:29:00,41.8,34.5,30.24,SE,132,0.0,0.0,75,0.00,,,0.00,0,WeatherTracker,2013-02-12 08:29:00,
2013-02-12 00:34:00,41.7,34.4,30.24,SE,131,0.0,0.0,75,0.00,,,0.00,0,WeatherTracker,2013-02-12 08:34:00,
2013-02-12 00:39:00,41.5,34.2,30.24,SE,131,0.0,0.0,75,0.00,,,0.00,0,WeatherTracker,2013-02-12 08:39:00,
2013-02-12 00:44:00,41.3,34.3,30.24,SE,128,0.0,0.0,76,0.00,,,0.00,0,WeatherTracker,2013-02-12 08:44:00,
2013-02-12 00:49:00,41.3,34.6,30.24,SE,128,0.0,0.0,77,0.00,,,0.00,0,WeatherTracker,2013-02-12 08:49:00,
2013-02-12 00:54:00,41.6,35.3,30.24,SE,126,0.0,0.0,78,0.00,,,0.00,0,WeatherTracker,2013-02-12 08:54:00,
2013-02-12 00:59:00,41.8,35.5,30.24,SE,124,0.0,0.0,78,0.00,,,0.00,0,WeatherTracker,2013-02-12 08:59:00,
2013-02-12 01:04:00,42.0,35.6,30.24,ESE,123,0.0,0.0,78,0.00,,,0.00,0,WeatherTracker,2013-02-12 09:04:00,
2013-02-12 01:09:00,42.2,35.8,30.25,ESE,123,0.0,0.0,78,0.00,,,0.00,0,WeatherTracker,2013-02-12 09:09:00,
2013-02-12 01:14:00,42.2,36.2,30.25,ESE,123,0.0,0.0,79,0.00,,,0.00,0,WeatherTracker,2013-02-12 09:14:00,
2013-02-12 01:19:00,42.2,36.2,30.25,ESE,123,0.0,0.0,79,0.00,,,0.00,0,WeatherTracker,2013-02-12 09:19:00,
2013-02-12 01:24:00,42.1,36.1,30.25,ESE,123,0.0,0.0,79,0.00,,,0.00,0,WeatherTracker,2013-02-12 09:24:00,
2013-02-12 01:29:00,41.9,35.9,30.25,ESE,123,0.0,0.0,79,0.00,,,0.00,0,WeatherTracker,2013-02-12 09:29:00,
2013-02-12 01:34:00,41.7,36.0,30.25,ESE,123,0.0,0.0,80,0.00,,,0.00,0,WeatherTracker,2013-02-12 09:34:00,
2013-02-12 01:39:00,41.6,35.9,30.26,ESE,123,0.0,0.0,80,0.00,,,0.00,0,WeatherTracker,2013-02-12 09:39:00,
2013-02-12 01:44:00,41.4,35.7,30.26,ESE,123,0.0,0.0,80,0.00,,,0.00,0,WeatherTracker,2013-02-12 09:44:00,
2013-02-12 01:49:00,41.1,35.4,30.26,ESE,123,0.0,0.0,80,0.00,,,0.00,0,WeatherTracker,2013-02-12 09:49:00,
2013-02-12 01:54:00,41.0,35.6,30.26,ESE,123,0.0,0.0,81,0.00,,,0.00,0,WeatherTracker,2013-02-12 09:54:00,
2013-02-12 02:00:00,40.8,35.1,30.26,ESE,123,0.0,0.0,80,0.00,,,0.00,0,WeatherTracker,2013-02-12 10:00:00,
2013-02-12 02:05:00,40.5,34.8,30.26,ESE,123,0.0,0.0,80,0.00,,,0.00,0,WeatherTracker,2013-02-12 10:05:00,
2013-02-12 02:10:00,40.3,34.6,30.27,ESE,123,0.0,0.0,80,0.00,,,0.00,0,WeatherTracker,2013-02-12 10:10:00,
2013-02-12 02:15:00,40.1,34.4,30.27,ESE,123,0.0,0.0,80,0.00,,,0.00,0,WeatherTracker,2013-02-12 10:15:00,
2013-02-12 02:20:00,39.9,34.6,30.27,ESE,123,0.0,0.0,81,0.00,,,0.00,0,WeatherTracker,2013-02-12 10:20:00,
2013-02-12 02:25:00,39.8,34.8,30.27,ESE,123,0.0,0.0,82,0.00,,,0.00,0,WeatherTracker,2013-02-12 10:25:00,
2013-02-12 02:30:00,39.9,35.2,30.27,ESE,123,0.0,0.0,83,0.00,,,0.00,0,WeatherTracker,2013-02-12 10:30:00,
2013-02-12 02:35:00,39.9,34.9,30.27,ESE,123,0.0,0.0,82,0.00,,,0.00,0,WeatherTracker,2013-02-12 10:35:00,
2013-02-12 02:40:00,39.9,34.9,30.27,ESE,123,0.0,0.0,82,0.00,,,0.00,0,WeatherTracker,2013-02-12 10:40:00,
2013-02-12 02:45:00,39.7,34.7,30.27,ESE,123,0.0,0.0,82,0.00,,,0.00,0,WeatherTracker,2013-02-12 10:45:00,
2013-02-12 02:50:00,39.5,34.5,30.27,ESE,123,0.0,0.0,82,0.00,,,0.00,0,WeatherTracker,2013-02-12 10:50:00,
2013-02-12 02:55:00,39.3,34.3,30.27,ESE,123,0.0,0.0,82,0.00,,,0.00,0,WeatherTracker,2013-02-12 10:55:00,
2013-02-12 03:00:00,39.1,34.1,30.27,ESE,123,0.0,0.0,82,0.00,,,0.00,0,WeatherTracker,2013-02-12 11:00:00,
2013-02-12 03:05:00,38.9,33.9,30.27,ESE,123,0.0,0.0,82,0.00,,,0.00,0,WeatherTracker,2013-02-12 11:05:00,
2013-02-12 03:11:00,38.7,34.0,30.28,ESE,123,0.0,0.0,83,0.00,,,0.00,0,WeatherTracker,2013-02-12 11:11:00,
2013-02-12 03:16:00,38.5,33.8,30.28,ESE,123,0.0,0.0,83,0.00,,,0.00,0,WeatherTracker,2013-02-12 11:16:00,
2013-02-12 03:21:00,38.4,33.7,30.28,ESE,123,0.0,0.0,83,0.00,,,0.00,0,WeatherTracker,2013-02-12 11:21:00,
2013-02-12 03:26:00,38.2,33.5,30.28,ESE,123,0.0,0.0,83,0.00,,,0.00,0,WeatherTracker,2013-02-12 11:26:00,
2013-02-12 03:31:00,38.1,33.4,30.28,ESE,123,0.0,0.0,83,0.00,,,0.00,0,WeatherTracker,2013-02-12 11:31:00,
2013-02-12 03:36:00,38.1,33.7,30.28,ESE,123,0.0,0.0,84,0.00,,,0.00,0,WeatherTracker,2013-02-12 11:36:00,
2013-02-12 03:41:00,38.0,33.6,30.28,ESE,123,0.0,0.0,84,0.00,,,0.00,0,WeatherTracker,2013-02-12 11:41:00,
2013-02-12 03:46:00,37.9,33.5,30.28,ESE,123,0.0,0.0,84,0.00,,,0.00,0,WeatherTracker,2013-02-12 11:46:00,
2013-02-12 03:51:00,37.8,33.1,30.28,ESE,123,0.0,0.0,83,0.00,,,0.00,0,WeatherTracker,2013-02-12 11:51:00,
2013-02-12 03:56:00,37.8,33.4,30.28,ESE,123,0.0,0.0,84,0.00,,,0.00,0,WeatherTracker,2013-02-12 11:56:00,
2013-02-12 04:01:00,37.7,33.3,30.28,ESE,123,0.0,0.0,84,0.00,,,0.00,0,WeatherTracker,2013-02-12 12:01:00,
2013-02-12 04:06:00,37.7,33.3,30.28,ESE,123,0.0,0.0,84,0.00,,,0.00,0,WeatherTracker,2013-02-12 12:06:00,
2013-02-12 04:11:00,37.6,33.2,30.28,ESE,123,0.0,0.0,84,0.00,,,0.00,0,WeatherTracker,2013-02-12 12:11:00,
2013-02-12 04:16:00,37.5,33.1,30.28,ESE,123,0.0,0.0,84,0.00,,,0.00,0,WeatherTracker,2013-02-12 12:16:00,
2013-02-12 04:21:00,37.5,33.1,30.28,ESE,123,0.0,0.0,84,0.00,,,0.00,0,WeatherTracker,2013-02-12 12:21:00,
2013-02-12 04:26:00,37.4,33.0,30.28,ESE,123,0.0,0.0,84,0.00,,,0.00,0,WeatherTracker,2013-02-12 12:26:00,
2013-02-12 04:31:00,37.2,32.8,30.28,ESE,123,0.0,0.0,84,0.00,,,0.00,0,WeatherTracker,2013-02-12 12:31:00,
2013-02-12 04:36:00,37.2,32.8,30.29,ESE,123,0.0,0.0,84,0.00,,,0.00,0,WeatherTracker,2013-02-12 12:36:00,
2013-02-12 04:41:00,37.1,32.7,30.29,ESE,123,0.0,0.0,84,0.00,,,0.00,0,WeatherTracker,2013-02-12 12:41:00,
2013-02-12 04:46:00,37.0,32.6,30.29,ESE,123,0.0,0.0,84,0.00,,,0.00,0,WeatherTracker,2013-02-12 12:46:00,
2013-02-12 04:51:00,36.9,32.5,30.30,ESE,123,0.0,0.0,84,0.00,,,0.00,0,WeatherTracker,2013-02-12 12:51:00,
2013-02-12 04:56:00,36.8,32.4,30.30,ESE,123,0.0,0.0,84,0.00,,,0.00,0,WeatherTracker,2013-02-12 12:56:00,
2013-02-12 05:02:00,36.7,32.6,30.30,ESE,123,0.0,0.0,85,0.00,,,0.00,0,WeatherTracker,2013-02-12 13:02:00,
2013-02-12 05:07:00,36.7,32.6,30.30,ESE,123,0.0,0.0,85,0.00,,,0.00,0,WeatherTracker,2013-02-12 13:07:00,
2013-02-12 05:12:00,36.7,32.6,30.31,ESE,123,0.0,0.0,85,0.00,,,0.00,0,WeatherTracker,2013-02-12 13:12:00,
2013-02-12 05:17:00,36.6,32.5,30.31,ESE,123,0.0,0.0,85,0.00,,,0.00,0,WeatherTracker,2013-02-12 13:17:00,
2013-02-12 05:22:00,36.6,32.5,30.30,ESE,123,0.0,0.0,85,0.00,,,0.00,0,WeatherTracker,2013-02-12 13:22:00,
2013-02-12 05:27:00,36.5,32.4,30.31,ESE,123,0.0,0.0,85,0.00,,,0.00,0,WeatherTracker,2013-02-12 13:27:00,
2013-02-12 05:32:00,36.4,32.3,30.31,ESE,123,0.0,0.0,85,0.00,,,0.00,0,WeatherTracker,2013-02-12 13:32:00,
2013-02-12 05:37:00,36.3,32.2,30.31,ESE,123,0.0,0.0,85,0.00,,,0.00,0,WeatherTracker,2013-02-12 13:37:00,
2013-02-12 05:42:00,36.3,32.2,30.31,ESE,123,0.0,0.0,85,0.00,,,0.00,0,WeatherTracker,2013-02-12 13:42:00,
2013-02-12 05:47:00,36.2,32.1,30.31,ESE,123,0.0,0.0,85,0.00,,,0.00,0,WeatherTracker,2013-02-12 13:47:00,
2013-02-12 05:52:00,36.1,32.0,30.32,ESE,123,0.0,0.0,85,0.00,,,0.00,0,WeatherTracker,2013-02-12 13:52:00,
2013-02-12 05:57:00,36.1,32.0,30.32,ESE,123,0.0,0.0,85,0.00,,,0.00,0,WeatherTracker,2013-02-12 13:57:00,
2013-02-12 06:02:00,36.0,31.9,30.32,ESE,123,0.0,0.0,85,0.00,,,0.00,0,WeatherTracker,2013-02-12 14:02:00,
2013-02-12 06:07:00,35.9,31.8,30.32,ESE,123,0.0,0.0,85,0.00,,,0.00,0,WeatherTracker,2013-02-12 14:07:00,
2013-02-12 06:12:00,35.8,31.7,30.32,ESE,123,0.0,0.0,85,0.00,,,0.00,0,WeatherTracker,2013-02-12 14:12:00,
2013-02-12 06:18:00,35.8,31.7,30.32,ESE,123,0.0,0.0,85,0.00,,,0.00,0,WeatherTracker,2013-02-12 14:18:00,
2013-02-12 06:23:00,35.7,31.6,30.32,ESE,123,0.0,0.0,85,0.00,,,0.00,0,WeatherTracker,2013-02-12 14:23:00,
2013-02-12 06:28:00,35.7,31.6,30.32,ESE,123,0.0,0.0,85,0.00,,,0.00,0,WeatherTracker,2013-02-12 14:28:00,
2013-02-12 06:33:00,35.6,31.5,30.32,ESE,123,0.0,0.0,85,0.00,,,0.00,0,WeatherTracker,2013-02-12 14:33:00,
2013-02-12 06:38:00,35.6,31.5,30.33,ESE,123,0.0,0.0,85,0.00,,,0.00,0,WeatherTracker,2013-02-12 14:38:00,
2013-02-12 06:43:00,35.6,31.5,30.33,ESE,123,0.0,0.0,85,0.00,,,0.00,0,WeatherTracker,2013-02-12 14:43:00,
2013-02-12 06:48:00,35.6,31.8,30.33,ESE,123,0.0,0.0,86,0.00,,,0.00,0,WeatherTracker,2013-02-12 14:48:00,
2013-02-12 06:53:00,35.5,31.7,30.33,ESE,123,0.0,0.0,86,0.00,,,0.00,0,WeatherTracker,2013-02-12 14:53:00,
2013-02-12 06:58:00,35.5,31.7,30.33,ESE,123,0.0,0.0,86,0.00,,,0.00,0,WeatherTracker,2013-02-12 14:58:00,
2013-02-12 07:03:00,35.5,31.7,30.34,ESE,123,0.0,0.0,86,0.00,,,0.00,5,WeatherTracker,2013-02-12 15:03:00,
2013-02-12 07:08:00,35.4,31.6,30.34,ESE,123,0.0,0.0,86,0.00,,,0.00,9,WeatherTracker,2013-02-12 15:08:00,
2013-02-12 07:13:00,35.4,31.6,30.35,ESE,123,0.0,0.0,86,0.00,,,0.00,12,WeatherTracker,2013-02-12 15:13:00,
2013-02-12 07:18:00,35.5,31.7,30.35,ESE,123,0.0,0.0,86,0.00,,,0.00,16,WeatherTracker,2013-02-12 15:18:00,
2013-02-12 07:23:00,35.6,31.8,30.35,ESE,123,0.0,0.0,86,0.00,,,0.00,19,WeatherTracker,2013-02-12 15:23:00,
2013-02-12 07:28:00,35.8,32.0,30.35,ESE,123,0.0,0.0,86,0.00,,,0.00,23,WeatherTracker,2013-02-12 15:28:00,
2013-02-12 07:33:00,36.1,32.6,30.35,ESE,123,0.0,0.0,87,0.00,,,0.00,32,WeatherTracker,2013-02-12 15:33:00,
2013-02-12 07:38:00,36.6,33.1,30.36,ESE,123,0.0,0.0,87,0.00,,,0.00,42,WeatherTracker,2013-02-12 15:38:00,
2013-02-12 07:43:00,37.1,33.6,30.36,ESE,123,0.0,0.0,87,0.00,,,0.00,51,WeatherTracker,2013-02-12 15:43:00,
2013-02-12 07:48:00,37.7,33.9,30.36,ESE,123,0.0,0.0,86,0.00,,,0.00,63,WeatherTracker,2013-02-12 15:48:00,
2013-02-12 07:53:00,38.3,34.5,30.36,ESE,123,0.0,0.0,86,0.00,,,0.00,83,WeatherTracker,2013-02-12 15:53:00,
2013-02-12 07:58:00,39.0,34.9,30.36,ESE,123,0.0,0.0,85,0.00,,,0.00,98,WeatherTracker,2013-02-12 15:58:00,
2013-02-12 08:03:00,39.7,35.3,30.36,ESE,123,0.0,0.0,84,0.00,,,0.00,121,WeatherTracker,2013-02-12 16:03:00,
2013-02-12 08:08:00,40.7,35.9,30.36,ESE,121,0.0,0.0,83,0.00,,,0.00,142,WeatherTracker,2013-02-12 16:08:00,
2013-02-12 08:14:00,41.7,36.6,30.37,ESE,119,0.0,0.0,82,0.00,,,0.00,158,WeatherTracker,2013-02-12 16:14:00,
2013-02-12 08:19:00,42.5,36.8,30.37,NW,314,0.0,0.0,80,0.00,,,0.00,174,WeatherTracker,2013-02-12 16:19:00,
2013-02-12 08:24:00,43.2,37.1,30.37,NW,322,0.0,0.0,79,0.00,,,0.00,190,WeatherTracker,2013-02-12 16:24:00,
2013-02-12 08:29:00,43.8,37.1,30.37,NW,325,0.0,0.0,77,0.00,,,0.00,207,WeatherTracker,2013-02-12 16:29:00,
2013-02-12 08:34:00,44.3,37.2,30.37,NNW,327,0.0,0.0,76,0.00,,,0.00,221,WeatherTracker,2013-02-12 16:34:00,
2013-02-12 08:39:00,45.1,37.7,30.38,NNW,333,0.0,0.0,75,0.00,,,0.00,234,WeatherTracker,2013-02-12 16:39:00,
2013-02-12 08:44:00,45.7,37.5,30.38,NNW,333,0.0,0.0,73,0.00,,,0.00,246,WeatherTracker,2013-02-12 16:44:00,
2013-02-12 08:49:00,46.3,37.8,30.38,NNW,336,0.0,0.0,72,0.00,,,0.00,258,WeatherTracker,2013-02-12 16:49:00,
2013-02-12 08:54:00,47.0,38.1,30.38,NNW,336,0.0,0.0,71,0.00,,,0.00,279,WeatherTracker,2013-02-12 16:54:00,
2013-02-12 08:59:00,47.3,37.7,30.38,NNW,336,0.0,0.0,69,0.00,,,0.00,297,WeatherTracker,2013-02-12 16:59:00,
2013-02-12 09:04:00,47.9,38.2,30.38,NNW,339,0.0,0.0,69,0.00,,,0.00,302,WeatherTracker,2013-02-12 17:04:00,
2013-02-12 09:09:00,48.2,38.1,30.39,NNW,334,0.0,0.0,68,0.00,,,0.00,315,WeatherTracker,2013-02-12 17:09:00,
2013-02-12 09:14:00,48.5,38.4,30.39,NNW,334,0.0,0.0,68,0.00,,,0.00,329,WeatherTracker,2013-02-12 17:14:00,
2013-02-12 09:19:00,49.0,38.9,30.39,NNW,333,0.0,0.0,68,0.00,,,0.00,348,WeatherTracker,2013-02-12 17:19:00,
2013-02-12 09:24:00,49.8,38.9,30.39,NNW,333,0.0,0.0,66,0.00,,,0.00,360,WeatherTracker,2013-02-12 17:24:00,
2013-02-12 09:29:00,50.8,39.5,30.39,NNW,333,0.0,0.0,65,0.00,,,0.00,366,WeatherTracker,2013-02-12 17:29:00,
2013-02-12 09:34:00,51.2,39.0,30.38,NNW,333,0.0,0.0,63,0.00,,,0.00,367,WeatherTracker,2013-02-12 17:34:00,
2013-02-12 09:40:00,51.5,39.3,30.39,NNW,333,0.0,0.0,63,0.00,,,0.00,403,WeatherTracker,2013-02-12 17:40:00,
2013-02-12 09:45:00,52.1,39.5,30.39,NNW,333,0.0,0.0,62,0.00,,,0.00,420,WeatherTracker,2013-02-12 17:45:00,
2013-02-12 09:50:00,52.0,39.0,30.39,NNW,333,0.0,0.0,61,0.00,,,0.00,429,WeatherTracker,2013-02-12 17:50:00,
2013-02-12 09:55:00,52.2,39.6,30.39,NNW,333,0.0,0.0,62,0.00,,,0.00,438,WeatherTracker,2013-02-12 17:55:00,
2013-02-12 10:00:00,52.8,39.3,30.39,NNW,333,0.0,0.0,60,0.00,,,0.00,439,WeatherTracker,2013-02-12 18:00:00,
2013-02-12 10:05:00,53.1,39.6,30.39,NNW,333,0.0,0.0,60,0.00,,,0.00,408,WeatherTracker,2013-02-12 18:05:00,
2013-02-12 10:10:00,53.7,39.7,30.39,NNW,333,0.0,0.0,59,0.00,,,0.00,482,WeatherTracker,2013-02-12 18:10:00,
2013-02-12 10:15:00,53.7,39.3,30.39,NNW,330,0.0,0.0,58,0.00,,,0.00,485,WeatherTracker,2013-02-12 18:15:00,
2013-02-12 10:20:00,53.6,39.2,30.39,NNW,330,0.0,0.0,58,0.00,,,0.00,508,WeatherTracker,2013-02-12 18:20:00,
2013-02-12 10:25:00,54.3,40.3,30.39,NNW,331,0.0,0.0,59,0.00,,,0.00,519,WeatherTracker,2013-02-12 18:25:00,
2013-02-12 10:30:00,55.0,39.6,30.39,NNW,331,0.0,0.0,56,0.00,,,0.00,519,WeatherTracker,2013-02-12 18:30:00,
2013-02-12 10:35:00,55.2,39.8,30.39,NNW,331,0.0,0.0,56,0.00,,,0.00,554,WeatherTracker,2013-02-12 18:35:00,
2013-02-12 10:40:00,56.0,39.6,30.39,NNW,331,0.0,0.0,54,0.00,,,0.00,446,WeatherTracker,2013-02-12 18:40:00,
2013-02-12 10:46:00,56.2,39.8,30.39,NNW,329,0.0,0.0,54,0.00,,,0.00,431,WeatherTracker,2013-02-12 18:46:00,
2013-02-12 10:51:00,56.1,39.2,30.39,NNW,329,0.0,0.0,53,0.00,,,0.00,519,WeatherTracker,2013-02-12 18:51:00,
2013-02-12 10:56:00,56.2,39.8,30.38,NNW,329,0.0,0.0,54,0.00,,,0.00,573,WeatherTracker,2013-02-12 18:56:00,
2013-02-12 11:01:00,56.8,39.9,30.38,NNW,329,0.0,0.0,53,0.00,,,0.00,584,WeatherTracker,2013-02-12 19:01:00,
2013-02-12 11:06:00,57.2,39.7,30.38,NNW,332,0.0,0.0,52,0.00,,,0.00,605,WeatherTracker,2013-02-12 19:06:00,
2013-02-12 11:11:00,57.9,40.9,30.38,NNW,340,0.0,0.0,53,0.00,,,0.00,601,WeatherTracker,2013-02-12 19:11:00,
2013-02-12 11:16:00,58.4,40.8,30.38,NNW,339,0.0,0.0,52,0.00,,,0.00,454,WeatherTracker,2013-02-12 19:16:00,
2013-02-12 11:21:00,58.5,40.9,30.38,SE,128,0.0,0.0,52,0.00,,,0.00,527,WeatherTracker,2013-02-12 19:21:00,
2013-02-12 11:26:00,58.5,40.4,30.38,SE,128,0.0,2.0,51,0.00,,,0.00,598,WeatherTracker,2013-02-12 19:26:00,
2013-02-12 11:31:00,58.1,40.1,30.38,SE,128,0.0,2.0,51,0.00,,,0.00,621,WeatherTracker,2013-02-12 19:31:00,
2013-02-12 11:36:00,58.0,40.5,30.38,SE,134,0.0,2.0,52,0.00,,,0.00,575,WeatherTracker,2013-02-12 19:36:00,
2013-02-12 11:41:00,58.3,40.8,30.37,SE,134,0.0,4.0,52,0.00,,,0.00,589,WeatherTracker,2013-02-12 19:41:00,
2013-02-12 11:46:00,58.5,40.4,30.38,SE,134,0.0,4.0,51,0.00,,,0.00,612,WeatherTracker,2013-02-12 19:46:00,
2013-02-12 11:51:00,58.8,40.7,30.37,SE,134,0.0,1.0,51,0.00,,,0.00,622,WeatherTracker,2013-02-12 19:51:00,
2013-02-12 11:56:00,59.1,41.0,30.37,SE,131,0.0,1.0,51,0.00,,,0.00,628,WeatherTracker,2013-02-12 19:56:00,
2013-02-12 12:01:00,59.5,40.8,30.37,SE,131,0.0,2.0,50,0.00,,,0.00,628,WeatherTracker,2013-02-12 20:01:00,
2013-02-12 12:06:00,59.6,40.9,30.37,SE,131,0.0,2.0,50,0.00,,,0.00,624,WeatherTracker,2013-02-12 20:06:00,
2013-02-12 12:11:00,60.1,41.4,30.37,ESE,113,0.0,4.0,50,0.00,,,0.00,628,WeatherTracker,2013-02-12 20:11:00,
2013-02-12 12:16:00,60.6,41.3,30.37,ESE,113,1.0,4.0,49,0.00,,,0.00,631,WeatherTracker,2013-02-12 20:16:00,
2013-02-12 12:21:00,60.7,41.4,30.36,ESE,115,0.0,2.0,49,0.00,,,0.00,615,WeatherTracker,2013-02-12 20:21:00,
2013-02-12 12:26:00,61.1,41.3,30.36,ESE,119,0.0,2.0,48,0.00,,,0.00,606,WeatherTracker,2013-02-12 20:26:00,
2013-02-12 12:31:00,61.5,41.6,30.36,SE,130,1.0,5.0,48,0.00,,,0.00,615,WeatherTracker,2013-02-12 20:31:00,
2013-02-12 12:36:00,61.7,41.3,30.36,SE,137,0.0,5.0,47,0.00,,,0.00,613,WeatherTracker,2013-02-12 20:36:00,
2013-02-12 12:41:00,61.4,41.5,30.35,SE,137,0.0,4.0,48,0.00,,,0.00,624,WeatherTracker,2013-02-12 20:41:00,
2013-02-12 12:46:00,61.6,41.7,30.35,SE,137,1.0,2.0,48,0.00,,,0.00,628,WeatherTracker,2013-02-12 20:46:00,
2013-02-12 12:51:00,62.3,41.8,30.35,SE,142,1.0,5.0,47,0.00,,,0.00,635,WeatherTracker,2013-02-12 20:51:00,
2013-02-12 12:56:00,62.6,42.1,30.35,SE,141,0.0,5.0,47,0.00,,,0.00,629,WeatherTracker,2013-02-12 20:56:00,
2013-02-12 13:01:00,62.6,41.5,30.34,SE,141,1.0,4.0,46,0.00,,,0.00,629,WeatherTracker,2013-02-12 21:01:00,
2013-02-12 13:06:00,62.4,41.3,30.34,SSE,163,2.0,2.0,46,0.00,,,0.00,626,WeatherTracker,2013-02-12 21:06:00,
2013-02-12 13:12:00,62.8,41.7,30.34,SSE,164,0.0,5.0,46,0.00,,,0.00,621,WeatherTracker,2013-02-12 21:12:00,
2013-02-12 13:17:00,63.2,40.9,30.34,SSE,159,1.0,5.0,44,0.00,,,0.00,613,WeatherTracker,2013-02-12 21:17:00,
2013-02-12 13:22:00,63.4,41.1,30.34,SSE,159,0.0,4.0,44,0.00,,,0.00,608,WeatherTracker,2013-02-12 21:22:00,
2013-02-12 13:27:00,64.0,41.1,30.34,SSE,156,0.0,5.0,43,0.00,,,0.00,598,WeatherTracker,2013-02-12 21:27:00,
2013-02-12 13:32:00,64.1,40.5,30.34,SSE,156,0.0,5.0,42,0.00,,,0.00,596,WeatherTracker,2013-02-12 21:32:00,
2013-02-12 13:37:00,64.2,41.2,30.34,SSE,153,1.0,4.0,43,0.00,,,0.00,596,WeatherTracker,2013-02-12 21:37:00,
2013-02-12 13:42:00,64.4,40.8,30.34,SSE,158,0.0,4.0,42,0.00,,,0.00,592,WeatherTracker,2013-02-12 21:42:00,
2013-02-12 13:47:00,64.4,40.2,30.33,SSE,161,1.0,5.0,41,0.00,,,0.00,584,WeatherTracker,2013-02-12 21:47:00,
2013-02-12 13:52:00,64.5,40.9,30.33,South,173,1.0,5.0,42,0.00,,,0.00,575,WeatherTracker,2013-02-12 21:52:00,
2013-02-12 13:57:00,64.8,39.9,30.33,SSE,157,0.0,4.0,40,0.00,,,0.00,566,WeatherTracker,2013-02-12 21:57:00,
2013-02-12 14:02:00,64.7,39.8,30.33,SSW,199,3.0,5.0,40,0.00,,,0.00,557,WeatherTracker,2013-02-12 22:02:00,
2013-02-12 14:07:00,64.9,39.3,30.32,SSW,198,0.0,5.0,39,0.00,,,0.00,550,WeatherTracker,2013-02-12 22:07:00,
2013-02-12 14:12:00,65.2,39.6,30.32,SSW,195,2.0,5.0,39,0.00,,,0.00,545,WeatherTracker,2013-02-12 22:12:00,
2013-02-12 14:17:00,65.2,39.6,30.32,SSW,200,2.0,4.0,39,0.00,,,0.00,536,WeatherTracker,2013-02-12 22:17:00,
2013-02-12 14:22:00,65.0,38.8,30.32,SW,222,2.0,5.0,38,0.00,,,0.00,526,WeatherTracker,2013-02-12 22:22:00,
2013-02-12 14:27:00,64.7,38.5,30.32,SW,223,1.0,5.0,38,0.00,,,0.00,517,WeatherTracker,2013-02-12 22:27:00,
2013-02-12 14:32:00,64.7,38.5,30.32,SW,223,0.0,5.0,38,0.00,,,0.00,506,WeatherTracker,2013-02-12 22:32:00,
2013-02-12 14:37:00,65.3,39.7,30.32,SW,223,0.0,3.0,39,0.00,,,0.00,492,WeatherTracker,2013-02-12 22:37:00,
2013-02-12 14:42:00,65.8,39.5,30.32,SW,223,0.0,1.0,38,0.00,,,0.00,482,WeatherTracker,2013-02-12 22:42:00,
2013-02-12 14:47:00,66.0,39.0,30.31,SW,223,2.0,0.0,37,0.00,,,0.00,475,WeatherTracker,2013-02-12 22:47:00,
2013-02-12 14:52:00,66.2,39.2,30.31,South,184,0.0,3.0,37,0.00,,,0.00,462,WeatherTracker,2013-02-12 22:52:00,
2013-02-12 14:57:00,66.1,39.1,30.31,South,176,0.0,4.0,37,0.00,,,0.00,452,WeatherTracker,2013-02-12 22:57:00,
2013-02-12 15:03:00,66.1,39.1,30.31,SE,138,4.0,4.0,37,0.00,,,0.00,438,WeatherTracker,2013-02-12 23:03:00,
2013-02-12 15:08:00,66.1,39.1,30.31,SE,130,0.0,6.0,37,0.00,,,0.00,425,WeatherTracker,2013-02-12 23:08:00,
2013-02-12 15:13:00,66.2,39.2,30.31,SE,128,0.0,6.0,37,0.00,,,0.00,413,WeatherTracker,2013-02-12 23:13:00,
2013-02-12 15:18:00,66.1,39.1,30.31,ESE,115,1.0,6.0,37,0.00,,,0.00,399,WeatherTracker,2013-02-12 23:18:00,
2013-02-12 15:23:00,65.6,38.6,30.31,ESE,103,0.0,2.0,37,0.00,,,0.00,385,WeatherTracker,2013-02-12 23:23:00,
2013-02-12 15:28:00,65.7,38.7,30.31,ESE,102,0.0,2.0,37,0.00,,,0.00,371,WeatherTracker,2013-02-12 23:28:00,
2013-02-12 15:33:00,65.8,38.8,30.31,ESE,105,0.0,2.0,37,0.00,,,0.00,357,WeatherTracker,2013-02-12 23:33:00,
2013-02-12 15:38:00,65.7,39.4,30.31,ESE,105,0.0,5.0,38,0.00,,,0.00,343,WeatherTracker,2013-02-12 23:38:00,
2013-02-12 15:43:00,65.6,38.6,30.31,East,97,0.0,5.0,37,0.00,,,0.00,329,WeatherTracker,2013-02-12 23:43:00,
2013-02-12 15:48:00,65.3,39.0,30.31,East,97,0.0,4.0,38,0.00,,,0.00,308,WeatherTracker,2013-02-12 23:48:00,
2013-02-12 15:53:00,65.4,38.4,30.31,East,97,0.0,4.0,37,0.00,,,0.00,295,WeatherTracker,2013-02-12 23:53:00,
2013-02-12 15:58:00,65.5,38.5,30.30,East,97,0.0,2.0,37,0.00,,,0.00,279,WeatherTracker,2013-02-12 23:58:00,
2013-02-12 16:03:00,65.5,39.2,30.30,East,97,0.0,2.0,38,0.00,,,0.00,265,WeatherTracker,2013-02-13 00:03:00,
2013-02-12 16:08:00,65.6,39.3,30.30,ESE,103,1.0,5.0,38,0.00,,,0.00,246,WeatherTracker,2013-02-13 00:08:00,
2013-02-12 16:13:00,65.3,39.0,30.30,East,100,0.0,5.0,38,0.00,,,0.00,227,WeatherTracker,2013-02-13 00:13:00,
2013-02-12 16:18:00,64.8,38.6,30.30,East,100,0.0,4.0,38,0.00,,,0.00,195,WeatherTracker,2013-02-13 00:18:00,
2013-02-12 16:23:00,64.3,38.8,30.30,East,101,0.0,2.0,39,0.00,,,0.00,165,WeatherTracker,2013-02-13 00:23:00,
2013-02-12 16:28:00,63.7,39.6,30.30,East,101,0.0,4.0,41,0.00,,,0.00,125,WeatherTracker,2013-02-13 00:28:00,
2013-02-12 16:33:00,63.2,39.7,30.30,East,99,4.0,4.0,42,0.00,,,0.00,77,WeatherTracker,2013-02-13 00:33:00,
2013-02-12 16:38:00,62.5,39.7,30.30,East,98,0.0,4.0,43,0.00,,,0.00,54,WeatherTracker,2013-02-13 00:38:00,
2013-02-12 16:43:00,62.0,39.8,30.30,East,96,0.0,4.0,44,0.00,,,0.00,44,WeatherTracker,2013-02-13 00:43:00,
2013-02-12 16:48:00,61.4,41.0,30.30,East,88,0.0,4.0,47,0.00,,,0.00,40,WeatherTracker,2013-02-13 00:48:00,
2013-02-12 16:53:00,60.9,41.1,30.30,East,86,0.0,5.0,48,0.00,,,0.00,39,WeatherTracker,2013-02-13 00:53:00,
2013-02-12 16:58:00,60.5,41.2,30.30,East,82,1.0,5.0,49,0.00,,,0.00,39,WeatherTracker,2013-02-13 00:58:00,
2013-02-12 17:03:00,60.1,40.9,30.30,East,82,2.0,4.0,49,0.00,,,0.00,33,WeatherTracker,2013-02-13 01:03:00,
2013-02-12 17:09:00,59.8,41.1,30.30,East,81,0.0,4.0,50,0.00,,,0.00,28,WeatherTracker,2013-02-13 01:09:00,
2013-02-12 17:14:00,59.4,41.3,30.30,East,82,0.0,3.0,51,0.00,,,0.00,26,WeatherTracker,2013-02-13 01:14:00,
2013-02-12 17:18:00,59.1,41.0,30.30,East,82,0.0,3.0,51,0.00,,,0.00,23,WeatherTracker,2013-02-13 01:18:00,
2013-02-12 17:24:00,58.9,41.3,30.30,East,82,2.0,3.0,52,0.00,,,0.00,18,WeatherTracker,2013-02-13 01:24:00,
2013-02-12 17:29:00,58.4,41.3,30.30,East,82,0.0,3.0,53,0.00,,,0.00,16,WeatherTracker,2013-02-13 01:29:00,
2013-02-12 17:34:00,57.9,41.4,30.30,East,82,0.0,3.0,54,0.00,,,0.00,12,WeatherTracker,2013-02-13 01:34:00,
2013-02-12 17:39:00,57.5,41.0,30.30,East,82,0.0,2.0,54,0.00,,,0.00,9,WeatherTracker,2013-02-13 01:39:00,
2013-02-12 17:44:00,57.0,40.5,30.30,East,84,0.0,1.0,54,0.00,,,0.00,5,WeatherTracker,2013-02-13 01:44:00,
2013-02-12 17:49:00,56.6,40.1,30.30,East,84,0.0,1.0,54,0.00,,,0.00,0,WeatherTracker,2013-02-13 01:49:00,
2013-02-12 17:54:00,56.2,40.2,30.30,East,84,0.0,0.0,55,0.00,,,0.00,0,WeatherTracker,2013-02-13 01:54:00,
2013-02-12 17:59:00,55.8,39.9,30.30,East,84,0.0,0.0,55,0.00,,,0.00,0,WeatherTracker,2013-02-13 01:59:00,
2013-02-12 18:04:00,55.5,40.1,30.30,East,84,0.0,0.0,56,0.00,,,0.00,0,WeatherTracker,2013-02-13 02:04:00,
2013-02-12 18:09:00,55.1,40.1,30.30,East,84,0.0,0.0,57,0.00,,,0.00,0,WeatherTracker,2013-02-13 02:09:00,
2013-02-12 18:14:00,54.7,40.2,30.30,East,84,0.0,0.0,58,0.00,,,0.00,0,WeatherTracker,2013-02-13 02:14:00,
2013-02-12 18:19:00,54.5,40.0,30.30,East,88,1.0,0.0,58,0.00,,,0.00,0,WeatherTracker,2013-02-13 02:19:00,
2013-02-12 18:24:00,54.2,40.2,30.30,East,88,0.0,3.0,59,0.00,,,0.00,0,WeatherTracker,2013-02-13 02:24:00,
2013-02-12 18:29:00,53.7,39.7,30.30,East,88,0.0,3.0,59,0.00,,,0.00,0,WeatherTracker,2013-02-13 02:29:00,
2013-02-12 18:34:00,53.3,39.8,30.30,East,88,0.0,2.0,60,0.00,,,0.00,0,WeatherTracker,2013-02-13 02:34:00,
2013-02-12 18:39:00,52.8,39.7,30.30,East,88,0.0,0.0,61,0.00,,,0.00,0,WeatherTracker,2013-02-13 02:39:00,
2013-02-12 18:44:00,52.5,39.9,30.30,East,88,0.0,0.0,62,0.00,,,0.00,0,WeatherTracker,2013-02-13 02:44:00,
2013-02-12 18:49:00,52.2,39.6,30.30,East,88,0.0,0.0,62,0.00,,,0.00,0,WeatherTracker,2013-02-13 02:49:00,
2013-02-12 18:54:00,51.8,39.6,30.30,East,88,0.0,0.0,63,0.00,,,0.00,0,WeatherTracker,2013-02-13 02:54:00,
2013-02-12 18:59:00,51.5,39.3,30.30,East,88,0.0,0.0,63,0.00,,,0.00,0,WeatherTracker,2013-02-13 02:59:00,
2013-02-12 19:05:00,51.2,39.4,30.30,East,88,1.0,1.0,64,0.00,,,0.00,0,WeatherTracker,2013-02-13 03:05:00,
2013-02-12 19:10:00,50.9,39.2,30.30,East,88,0.0,2.0,64,0.00,,,0.00,0,WeatherTracker,2013-02-13 03:10:00,
2013-02-12 19:15:00,50.7,39.4,30.30,East,88,0.0,2.0,65,0.00,,,0.00,0,WeatherTracker,2013-02-13 03:15:00,
2013-02-12 19:20:00,50.5,39.6,30.30,East,88,0.0,1.0,66,0.00,,,0.00,0,WeatherTracker,2013-02-13 03:20:00,
2013-02-12 19:25:00,50.3,39.4,30.30,East,88,0.0,1.0,66,0.00,,,0.00,0,WeatherTracker,2013-02-13 03:25:00,
2013-02-12 19:30:00,50.0,39.1,30.30,East,88,0.0,0.0,66,0.00,,,0.00,0,WeatherTracker,2013-02-13 03:30:00,
2013-02-12 19:35:00,49.6,39.1,30.30,East,88,0.0,0.0,67,0.00,,,0.00,0,WeatherTracker,2013-02-13 03:35:00,
2013-02-12 19:40:00,49.3,38.8,30.30,East,88,0.0,0.0,67,0.00,,,0.00,0,WeatherTracker,2013-02-13 03:40:00,
2013-02-12 19:45:00,49.1,39.0,30.30,East,88,0.0,0.0,68,0.00,,,0.00,0,WeatherTracker,2013-02-13 03:45:00,
2013-02-12 19:50:00,48.9,38.8,30.30,East,88,0.0,0.0,68,0.00,,,0.00,0,WeatherTracker,2013-02-13 03:50:00,
2013-02-12 19:55:00,48.6,38.9,30.30,East,88,0.0,0.0,69,0.00,,,0.00,0,WeatherTracker,2013-02-13 03:55:00,
2013-02-12 20:00:00,48.4,38.7,30.30,East,88,0.0,0.0,69,0.00,,,0.00,0,WeatherTracker,2013-02-13 04:00:00,
2013-02-12 20:05:00,48.3,38.6,30.30,East,88,0.0,0.0,69,0.00,,,0.00,0,WeatherTracker,2013-02-13 04:05:00,
2013-02-12 20:10:00,48.2,38.5,30.30,East,88,0.0,0.0,69,0.00,,,0.00,0,WeatherTracker,2013-02-13 04:10:00,
2013-02-12 20:15:00,48.1,38.8,30.30,East,88,0.0,0.0,70,0.00,,,0.00,0,WeatherTracker,2013-02-13 04:15:00,
2013-02-12 20:20:00,47.9,38.6,30.30,East,88,0.0,0.0,70,0.00,,,0.00,0,WeatherTracker,2013-02-13 04:20:00,
2013-02-12 20:25:00,47.7,38.4,30.30,East,88,0.0,1.0,70,0.00,,,0.00,0,WeatherTracker,2013-02-13 04:25:00,
2013-02-12 20:30:00,47.6,38.7,30.30,East,88,0.0,1.0,71,0.00,,,0.00,0,WeatherTracker,2013-02-13 04:30:00,
2013-02-12 20:36:00,47.4,38.5,30.30,East,88,0.0,0.0,71,0.00,,,0.00,0,WeatherTracker,2013-02-13 04:36:00,
2013-02-12 20:41:00,47.2,38.3,30.30,East,89,0.0,2.0,71,0.00,,,0.00,0,WeatherTracker,2013-02-13 04:41:00,
2013-02-12 20:46:00,47.0,38.4,30.30,East,90,0.0,2.0,72,0.00,,,0.00,0,WeatherTracker,2013-02-13 04:46:00,
2013-02-12 20:51:00,46.9,38.4,30.30,East,92,0.0,2.0,72,0.00,,,0.00,0,WeatherTracker,2013-02-13 04:51:00,
2013-02-12 20:56:00,46.9,38.7,30.30,ESE,113,1.0,4.0,73,0.00,,,0.00,0,WeatherTracker,2013-02-13 04:56:00,
2013-02-12 21:00:00,46.9,38.7,30.30,SE,130,0.0,4.0,73,0.00,,,0.00,0,WeatherTracker,2013-02-13 05:00:00,
2013-02-12 21:05:00,47.3,39.1,30.30,SE,133,0.0,4.0,73,0.00,,,0.00,0,WeatherTracker,2013-02-13 05:05:00,
2013-02-12 21:10:00,47.4,38.8,30.30,SE,134,1.0,4.0,72,0.00,,,0.00,0,WeatherTracker,2013-02-13 05:10:00,
2013-02-12 21:15:00,47.4,38.8,30.30,SE,134,0.0,4.0,72,0.00,,,0.00,0,WeatherTracker,2013-02-13 05:15:00,
2013-02-12 21:20:00,47.3,38.7,30.30,SE,134,0.0,2.0,72,0.00,,,0.00,0,WeatherTracker,2013-02-13 05:20:00,
2013-02-12 21:25:00,47.0,38.4,30.30,SE,134,0.0,1.0,72,0.00,,,0.00,0,WeatherTracker,2013-02-13 05:25:00,
2013-02-12 21:30:00,46.7,38.5,30.30,SE,134,0.0,0.0,73,0.00,,,0.00,0,WeatherTracker,2013-02-13 05:30:00,
2013-02-12 21:36:00,46.4,38.2,30.30,SE,138,1.0,0.0,73,0.00,,,0.00,0,WeatherTracker,2013-02-13 05:36:00,
2013-02-12 21:41:00,46.1,38.3,30.30,SE,138,0.0,4.0,74,0.00,,,0.00,0,WeatherTracker,2013-02-13 05:41:00,
2013-02-12 21:46:00,45.9,38.1,30.30,SE,138,0.0,4.0,74,0.00,,,0.00,0,WeatherTracker,2013-02-13 05:46:00,
2013-02-12 21:51:00,45.7,37.9,30.30,SE,138,0.0,0.0,74,0.00,,,0.00,0,WeatherTracker,2013-02-13 05:51:00,
2013-02-12 21:56:00,45.5,38.0,30.30,SE,138,0.0,0.0,75,0.00,,,0.00,0,WeatherTracker,2013-02-13 05:56:00,
2013-02-12 22:01:00,45.2,37.8,30.30,SE,138,0.0,0.0,75,0.00,,,0.00,0,WeatherTracker,2013-02-13 06:01:00,
2013-02-12 22:06:00,45.1,37.7,30.30,SE,138,0.0,0.0,75,0.00,,,0.00,0,WeatherTracker,2013-02-13 06:06:00,
2013-02-12 22:11:00,45.0,37.6,30.30,SE,138,0.0,0.0,75,0.00,,,0.00,0,WeatherTracker,2013-02-13 06:11:00,
2013-02-12 22:16:00,44.7,37.6,30.30,SE,138,0.0,0.0,76,0.00,,,0.00,0,WeatherTracker,2013-02-13 06:16:00,
2013-02-12 22:21:00,44.5,37.4,30.30,SE,138,0.0,0.0,76,0.00,,,0.00,0,WeatherTracker,2013-02-13 06:21:00,
2013-02-12 22:26:00,44.4,37.3,30.30,SE,138,0.0,0.0,76,0.00,,,0.00,0,WeatherTracker,2013-02-13 06:26:00,
2013-02-12 22:31:00,44.2,37.5,30.30,SE,138,0.0,0.0,77,0.00,,,0.00,0,WeatherTracker,2013-02-13 06:31:00,
2013-02-12 22:36:00,44.2,37.5,30.30,SE,138,0.0,0.0,77,0.00,,,0.00,0,WeatherTracker,2013-02-13 06:36:00,
2013-02-12 22:41:00,44.1,37.4,30.30,SE,138,0.0,0.0,77,0.00,,,0.00,0,WeatherTracker,2013-02-13 06:41:00,
2013-02-12 22:46:00,44.0,37.3,30.31,SE,138,0.0,0.0,77,0.00,,,0.00,0,WeatherTracker,2013-02-13 06:46:00,
2013-02-12 22:51:00,43.9,37.5,30.31,SE,138,0.0,0.0,78,0.00,,,0.00,0,WeatherTracker,2013-02-13 06:51:00,
2013-02-12 22:56:00,43.7,37.3,30.31,SE,138,0.0,0.0,78,0.00,,,0.00,0,WeatherTracker,2013-02-13 06:56:00,
2013-02-12 23:01:00,43.6,37.2,30.31,SE,138,0.0,0.0,78,0.00,,,0.00,0,WeatherTracker,2013-02-13 07:01:00,
2013-02-12 23:06:00,43.5,37.1,30.31,SE,138,0.0,0.0,78,0.00,,,0.00,0,WeatherTracker,2013-02-13 07:06:00,
2013-02-12 23:11:00,43.3,36.9,30.31,SE,138,0.0,0.0,78,0.00,,,0.00,0,WeatherTracker,2013-02-13 07:11:00,
2013-02-12 23:16:00,43.2,36.8,30.31,SE,138,0.0,0.0,78,0.00,,,0.00,0,WeatherTracker,2013-02-13 07:16:00,
2013-02-12 23:21:00,43.0,36.6,30.31,SE,138,0.0,0.0,78,0.00,,,0.00,0,WeatherTracker,2013-02-13 07:21:00,
2013-02-12 23:26:00,42.8,36.7,30.31,SE,138,0.0,0.0,79,0.00,,,0.00,0,WeatherTracker,2013-02-13 07:26:00,
2013-02-12 23:31:00,42.7,36.6,30.31,SE,138,0.0,0.0,79,0.00,,,0.00,0,WeatherTracker,2013-02-13 07:31:00,
2013-02-12 23:36:00,42.5,36.8,30.32,SE,138,0.0,0.0,80,0.00,,,0.00,0,WeatherTracker,2013-02-13 07:36:00,
2013-02-12 23:41:00,42.3,36.6,30.32,SE,138,0.0,0.0,80,0.00,,,0.00,0,WeatherTracker,2013-02-13 07:41:00,
2013-02-12 23:46:00,42.2,36.8,30.32,SE,138,0.0,0.0,81,0.00,,,0.00,0,WeatherTracker,2013-02-13 07:46:00,
2013-02-12 23:52:00,42.1,36.7,30.32,SE,138,0.0,0.0,81,0.00,,,0.00,0,WeatherTracker,2013-02-13 07:52:00,
2013-02-12 23:57:00,42.1,36.7,30.32,SE,138,0.0,0.0,81,0.00,,,0.00,0,WeatherTracker,2013-02-13 07:57:00,